Time,TemperatureF,DewpointF,PressureIn,WindDirection,WindDirectionDegrees,WindSpeedMPH,WindSpeedGustMPH,Humidity,HourlyPrecipIn,Conditions,Clouds,dailyrainin,SoftwareType,DateUTC
2013-01-16 00:00:00,29.7,17.5,18.26,NW,321,0.0,0.0,60,0.00,,,0.00,WUHU216WMR968SP,2013-01-16 05:00:00,
2013-01-16 00:05:00,29.8,18.4,18.26,NW,321,0.0,0.0,62,0.00,,,0.00,WUHU216WMR968SP,2013-01-16 05:05:00,
2013-01-16 00:10:00,29.8,18.4,18.26,NW,321,0.0,0.0,62,0.00,,,0.00,WUHU216WMR968SP,2013-01-16 05:10:00,
2013-01-16 00:15:00,29.7,18.3,18.26,NW,321,0.0,0.0,62,0.00,,,0.00,WUHU216WMR968SP,2013-01-16 05:15:00,
2013-01-16 00:20:00,29.8,18.4,18.26,NW,321,0.0,0.0,62,0.00,,,0.00,WUHU216WMR968SP,2013-01-16 05:20:00,
2013-01-16 00:25:00,29.8,18.8,18.26,NW,321,0.0,0.0,63,0.00,,,0.00,WUHU216WMR968SP,2013-01-16 05:25:00,
2013-01-16 00:30:00,29.8,18.8,18.26,NW,321,0.0,0.0,63,0.00,,,0.00,WUHU216WMR968SP,2013-01-16 05:30:00,
2013-01-16 00:35:00,29.8,19.2,18.26,NW,321,0.0,0.0,64,0.00,,,0.00,WUHU216WMR968SP,2013-01-16 05:35:00,
2013-01-16 00:40:00,29.7,18.7,18.26,NW,321,0.0,0.0,63,0.00,,,0.00,WUHU216WMR968SP,2013-01-16 05:40:00,
2013-01-16 00:45:00,29.5,18.5,18.26,NW,321,0.0,0.0,63,0.00,,,0.00,WUHU216WMR968SP,2013-01-16 05:45:00,
2013-01-16 00:50:00,29.7,19.1,18.26,NW,321,0.0,0.0,64,0.00,,,0.00,WUHU216WMR968SP,2013-01-16 05:50:00,
2013-01-16 00:55:00,29.7,19.1,18.26,NW,321,0.0,0.0,64,0.00,,,0.00,WUHU216WMR968SP,2013-01-16 05:55:00,
2013-01-16 01:00:00,29.5,18.9,18.26,NW,321,0.0,0.0,64,0.00,,,0.00,WUHU216WMR968SP,2013-01-16 06:00:00,
2013-01-16 01:05:00,29.7,19.1,18.26,NW,321,0.0,0.0,64,0.00,,,0.00,WUHU216WMR968SP,2013-01-16 06:05:00,
2013-01-16 01:10:00,29.7,18.7,18.26,NW,321,0.0,0.0,63,0.00,,,0.00,WUHU216WMR968SP,2013-01-16 06:10:00,
2013-01-16 01:15:00,29.7,18.7,18.26,NW,321,0.0,0.0,63,0.00,,,0.00,WUHU216WMR968SP,2013-01-16 06:15:00,
2013-01-16 01:20:00,29.7,18.7,18.26,NW,321,0.0,0.0,63,0.00,,,0.00,WUHU216WMR968SP,2013-01-16 06:20:00,
2013-01-16 01:25:00,29.8,19.2,18.26,NW,321,0.0,0.0,64,0.00,,,0.00,WUHU216WMR968SP,2013-01-16 06:25:00,
2013-01-16 01:30:00,29.8,19.2,18.26,NW,321,0.0,0.0,64,0.00,,,0.00,WUHU216WMR968SP,2013-01-16 06:30:00,
2013-01-16 01:35:00,29.8,19.2,18.26,NW,321,0.0,0.0,64,0.00,,,0.00,WUHU216WMR968SP,2013-01-16 06:35:00,
2013-01-16 01:40:00,30.0,19.0,18.26,NW,321,0.0,0.0,63,0.00,,,0.00,WUHU216WMR968SP,2013-01-16 06:40:00,
2013-01-16 01:45:00,29.8,18.4,18.26,NW,321,0.0,0.0,62,0.00,,,0.00,WUHU216WMR968SP,2013-01-16 06:45:00,
2013-01-16 01:50:00,29.8,18.4,18.26,NW,321,0.0,0.0,62,0.00,,,0.00,WUHU216WMR968SP,2013-01-16 06:50:00,
2013-01-16 01:55:00,30.2,18.8,18.26,NW,321,0.0,0.0,62,0.00,,,0.00,WUHU216WMR968SP,2013-01-16 06:55:00,
2013-01-16 02:00:00,30.0,18.6,18.26,NW,321,0.0,0.0,62,0.00,,,0.00,WUHU216WMR968SP,2013-01-16 07:00:00,
2013-01-16 02:05:00,30.0,18.6,18.26,NW,321,0.0,0.0,62,0.00,,,0.00,WUHU216WMR968SP,2013-01-16 07:05:00,
2013-01-16 02:10:00,29.8,18.4,18.26,NW,321,0.0,0.0,62,0.00,,,0.00,WUHU216WMR968SP,2013-01-16 07:10:00,
2013-01-16 02:15:00,29.8,18.4,18.26,NW,321,0.0,0.0,62,0.00,,,0.00,WUHU216WMR968SP,2013-01-16 07:15:00,
2013-01-16 02:20:00,29.7,18.3,18.26,NW,321,0.0,0.0,62,0.00,,,0.00,WUHU216WMR968SP,2013-01-16 07:20:00,
2013-01-16 02:25:00,29.8,18.4,18.26,NW,321,0.0,0.0,62,0.00,,,0.00,WUHU216WMR968SP,2013-01-16 07:25:00,
2013-01-16 02:30:00,30.0,18.6,18.26,NW,321,0.0,0.0,62,0.00,,,0.00,WUHU216WMR968SP,2013-01-16 07:30:00,
2013-01-16 02:35:00,30.2,18.8,18.26,NW,321,0.0,0.0,62,0.00,,,0.00,WUHU216WMR968SP,2013-01-16 07:35:00,
2013-01-16 02:40:00,30.0,18.6,18.26,NW,321,0.0,0.0,62,0.00,,,0.00,WUHU216WMR968SP,2013-01-16 07:40:00,
2013-01-16 02:45:00,30.0,18.6,18.26,NW,321,0.0,0.0,62,0.00,,,0.00,WUHU216WMR968SP,2013-01-16 07:45:00,
2013-01-16 02:50:00,30.0,18.6,18.26,NW,321,0.0,0.0,62,0.00,,,0.00,WUHU216WMR968SP,2013-01-16 07:50:00,
2013-01-16 02:55:00,30.2,18.8,18.26,NW,321,0.0,0.0,62,0.00,,,0.00,WUHU216WMR968SP,2013-01-16 07:55:00,
2013-01-16 03:00:00,30.2,19.2,18.26,NW,321,0.0,0.0,63,0.00,,,0.00,WUHU216WMR968SP,2013-01-16 08:00:00,
2013-01-16 03:05:00,30.2,19.5,18.26,NW,321,0.0,0.0,64,0.00,,,0.00,WUHU216WMR968SP,2013-01-16 08:05:00,
2013-01-16 03:10:00,30.2,19.5,18.26,NW,321,0.0,0.0,64,0.00,,,0.00,WUHU216WMR968SP,2013-01-16 08:10:00,
2013-01-16 03:15:00,30.2,19.5,18.26,NW,321,0.0,0.0,64,0.00,,,0.00,WUHU216WMR968SP,2013-01-16 08:15:00,
2013-01-16 03:20:00,30.2,19.5,18.26,NW,321,0.0,0.0,64,0.00,,,0.00,WUHU216WMR968SP,2013-01-16 08:20:00,
2013-01-16 03:25:00,30.2,19.5,18.26,NW,321,0.0,0.0,64,0.00,,,0.00,WUHU216WMR968SP,2013-01-16 08:25:00,
2013-01-16 03:30:00,30.2,19.5,18.26,NW,321,0.0,0.0,64,0.00,,,0.00,WUHU216WMR968SP,2013-01-16 08:30:00,
2013-01-16 03:35:00,30.2,19.5,18.26,NW,321,0.0,0.0,64,0.00,,,0.00,WUHU216WMR968SP,2013-01-16 08:35:00,
2013-01-16 03:40:00,30.2,19.2,18.26,NW,321,0.0,0.0,63,0.00,,,0.00,WUHU216WMR968SP,2013-01-16 08:40:00,
2013-01-16 03:45:00,30.2,19.2,18.26,NW,321,0.0,0.0,63,0.00,,,0.00,WUHU216WMR968SP,2013-01-16 08:45:00,
2013-01-16 03:50:00,30.2,18.8,18.26,NW,321,0.0,0.0,62,0.00,,,0.00,WUHU216WMR968SP,2013-01-16 08:50:00,
2013-01-16 03:55:00,30.2,18.8,18.26,NW,321,0.0,0.0,62,0.00,,,0.00,WUHU216WMR968SP,2013-01-16 08:55:00,
2013-01-16 04:00:00,30.2,19.2,18.26,NW,321,0.0,0.0,63,0.00,,,0.00,WUHU216WMR968SP,2013-01-16 09:00:00,
2013-01-16 04:05:00,30.2,19.2,18.26,NW,321,0.0,0.0,63,0.00,,,0.00,WUHU216WMR968SP,2013-01-16 09:05:00,
2013-01-16 04:10:00,30.2,19.5,18.26,NW,321,0.0,0.0,64,0.00,,,0.00,WUHU216WMR968SP,2013-01-16 09:10:00,
2013-01-16 04:15:00,30.2,19.5,18.26,NW,321,0.0,0.0,64,0.00,,,0.00,WUHU216WMR968SP,2013-01-16 09:15:00,
2013-01-16 04:20:00,30.2,19.2,18.26,NW,321,0.0,0.0,63,0.00,,,0.00,WUHU216WMR968SP,2013-01-16 09:20:00,
2013-01-16 04:25:00,30.0,19.0,18.26,NW,321,0.0,0.0,63,0.00,,,0.00,WUHU216WMR968SP,2013-01-16 09:25:00,
2013-01-16 04:30:00,30.0,18.6,18.26,NW,321,0.0,0.0,62,0.00,,,0.00,WUHU216WMR968SP,2013-01-16 09:30:00,
2013-01-16 04:35:00,30.0,18.2,18.26,NW,321,0.0,0.0,61,0.00,,,0.00,WUHU216WMR968SP,2013-01-16 09:35:00,
2013-01-16 04:40:00,30.0,18.2,18.26,NW,321,0.0,0.0,61,0.00,,,0.00,WUHU216WMR968SP,2013-01-16 09:40:00,
2013-01-16 04:45:00,30.0,17.8,18.26,NW,321,0.0,0.0,60,0.00,,,0.00,WUHU216WMR968SP,2013-01-16 09:45:00,
2013-01-16 04:50:00,30.0,17.4,18.26,NW,321,0.0,0.0,59,0.00,,,0.00,WUHU216WMR968SP,2013-01-16 09:50:00,
2013-01-16 04:55:00,30.0,17.4,18.26,NW,321,0.0,0.0,59,0.00,,,0.00,WUHU216WMR968SP,2013-01-16 09:55:00,
2013-01-16 05:00:00,30.0,17.4,18.26,NW,321,0.0,0.0,59,0.00,,,0.00,WUHU216WMR968SP,2013-01-16 10:00:00,
2013-01-16 05:05:00,30.0,17.0,18.26,NW,321,0.0,0.0,58,0.00,,,0.00,WUHU216WMR968SP,2013-01-16 10:05:00,
2013-01-16 05:10:00,30.0,17.0,18.26,NW,321,0.0,0.0,58,0.00,,,0.00,WUHU216WMR968SP,2013-01-16 10:10:00,
2013-01-16 05:15:00,30.2,16.8,18.26,NW,321,0.0,0.0,57,0.00,,,0.00,WUHU216WMR968SP,2013-01-16 10:15:00,
2013-01-16 05:20:00,30.2,16.8,18.26,NW,321,0.0,0.0,57,0.00,,,0.00,WUHU216WMR968SP,2013-01-16 10:20:00,
2013-01-16 05:25:00,30.2,16.0,18.26,NW,321,0.0,0.0,55,0.00,,,0.00,WUHU216WMR968SP,2013-01-16 10:25:00,
2013-01-16 05:30:00,30.4,15.7,18.26,NW,321,0.0,0.0,54,0.00,,,0.00,WUHU216WMR968SP,2013-01-16 10:30:00,
2013-01-16 05:35:00,30.4,15.3,18.26,NW,321,0.0,0.0,53,0.00,,,0.00,WUHU216WMR968SP,2013-01-16 10:35:00,
2013-01-16 05:40:00,30.4,15.3,18.26,NW,321,0.0,0.0,53,0.00,,,0.00,WUHU216WMR968SP,2013-01-16 10:40:00,
2013-01-16 05:45:00,30.6,15.5,18.26,NW,321,0.0,0.0,53,0.00,,,0.00,WUHU216WMR968SP,2013-01-16 10:45:00,
2013-01-16 05:50:00,30.6,15.5,18.26,NW,321,0.0,0.0,53,0.00,,,0.00,WUHU216WMR968SP,2013-01-16 10:50:00,
2013-01-16 05:55:00,30.4,16.2,18.26,NW,321,0.0,0.0,55,0.00,,,0.00,WUHU216WMR968SP,2013-01-16 10:55:00,
2013-01-16 06:00:00,30.2,16.8,18.26,NW,321,0.0,0.0,57,0.00,,,0.00,WUHU216WMR968SP,2013-01-16 11:00:00,
2013-01-16 06:05:00,30.0,17.4,18.26,NW,321,0.0,0.0,59,0.00,,,0.00,WUHU216WMR968SP,2013-01-16 11:05:00,
2013-01-16 06:10:00,29.7,18.3,18.26,NW,321,0.0,0.0,62,0.00,,,0.00,WUHU216WMR968SP,2013-01-16 11:10:00,
2013-01-16 06:15:00,29.5,18.9,18.26,NW,321,0.0,0.0,64,0.00,,,0.00,WUHU216WMR968SP,2013-01-16 11:15:00,
2013-01-16 06:20:00,29.5,19.6,18.26,NW,321,0.0,0.0,66,0.00,,,0.00,WUHU216WMR968SP,2013-01-16 11:20:00,
2013-01-16 06:25:00,29.5,20.0,18.26,NW,321,0.0,0.0,67,0.00,,,0.00,WUHU216WMR968SP,2013-01-16 11:25:00,
2013-01-16 06:30:00,29.5,20.3,18.26,NW,321,0.0,0.0,68,0.00,,,0.00,WUHU216WMR968SP,2013-01-16 11:30:00,
2013-01-16 06:35:00,29.5,20.6,18.26,NW,321,0.0,0.0,69,0.00,,,0.00,WUHU216WMR968SP,2013-01-16 11:35:00,
2013-01-16 06:40:00,29.5,20.6,18.26,NW,321,0.0,0.0,69,0.00,,,0.00,WUHU216WMR968SP,2013-01-16 11:40:00,
2013-01-16 06:45:00,29.5,21.0,18.26,NW,321,0.0,0.0,70,0.00,,,0.00,WUHU216WMR968SP,2013-01-16 11:45:00,
2013-01-16 06:50:00,29.5,21.0,18.26,NW,321,0.0,0.0,70,0.00,,,0.00,WUHU216WMR968SP,2013-01-16 11:50:00,
2013-01-16 06:55:00,29.5,21.0,18.26,NW,321,0.0,0.0,70,0.00,,,0.00,WUHU216WMR968SP,2013-01-16 11:55:00,
2013-01-16 07:00:00,29.5,21.0,18.26,NW,321,0.0,0.0,70,0.00,,,0.00,WUHU216WMR968SP,2013-01-16 12:00:00,
2013-01-16 07:05:00,29.5,21.0,18.26,NW,321,0.0,0.0,70,0.00,,,0.00,WUHU216WMR968SP,2013-01-16 12:05:00,
2013-01-16 07:10:00,29.5,21.0,18.26,NW,321,0.0,0.0,70,0.00,,,0.00,WUHU216WMR968SP,2013-01-16 12:10:00,
2013-01-16 07:15:00,29.3,20.8,18.26,NW,321,0.0,0.0,70,0.00,,,0.00,WUHU216WMR968SP,2013-01-16 12:15:00,
2013-01-16 07:20:00,29.5,21.0,18.26,NW,321,0.0,0.0,70,0.00,,,0.00,WUHU216WMR968SP,2013-01-16 12:20:00,
2013-01-16 07:25:00,29.5,21.0,18.26,NW,321,0.0,0.0,70,0.00,,,0.00,WUHU216WMR968SP,2013-01-16 12:25:00,
2013-01-16 07:30:00,29.3,20.8,18.26,NW,321,0.0,0.0,70,0.00,,,0.00,WUHU216WMR968SP,2013-01-16 12:30:00,
2013-01-16 07:35:00,29.5,21.0,18.26,NW,321,0.0,0.0,70,0.00,,,0.00,WUHU216WMR968SP,2013-01-16 12:35:00,
2013-01-16 07:40:00,29.5,21.0,18.26,NW,321,0.0,0.0,70,0.00,,,0.00,WUHU216WMR968SP,2013-01-16 12:40:00,
2013-01-16 07:45:00,29.5,21.0,18.26,NW,321,0.0,0.0,70,0.00,,,0.00,WUHU216WMR968SP,2013-01-16 12:45:00,
2013-01-16 07:50:00,29.7,21.2,18.26,NW,321,0.0,0.0,70,0.00,,,0.00,WUHU216WMR968SP,2013-01-16 12:50:00,
2013-01-16 07:55:00,29.8,21.3,18.26,NW,321,0.0,0.0,70,0.00,,,0.00,WUHU216WMR968SP,2013-01-16 12:55:00,
2013-01-16 08:00:00,29.8,21.3,18.26,NW,321,0.0,0.0,70,0.00,,,0.00,WUHU216WMR968SP,2013-01-16 13:00:00,
2013-01-16 08:05:00,29.8,21.3,18.26,NW,321,0.0,0.0,70,0.00,,,0.00,WUHU216WMR968SP,2013-01-16 13:05:00,
2013-01-16 08:10:00,29.8,21.3,18.26,NW,321,0.0,0.0,70,0.00,,,0.00,WUHU216WMR968SP,2013-01-16 13:10:00,
2013-01-16 08:15:00,30.0,21.5,18.26,NW,321,0.0,0.0,70,0.00,,,0.00,WUHU216WMR968SP,2013-01-16 13:15:00,
2013-01-16 08:20:00,30.0,21.5,18.26,NW,321,0.0,0.0,70,0.00,,,0.00,WUHU216WMR968SP,2013-01-16 13:20:00,
2013-01-16 08:25:00,30.0,21.5,18.26,NW,321,0.0,0.0,70,0.00,,,0.00,WUHU216WMR968SP,2013-01-16 13:25:00,
2013-01-16 08:30:00,30.0,21.5,18.26,NW,321,0.0,0.0,70,0.00,,,0.00,WUHU216WMR968SP,2013-01-16 13:30:00,
2013-01-16 08:36:00,30.0,21.5,18.26,NW,321,0.0,0.0,70,0.00,,,0.00,WUHU216WMR968SP,2013-01-16 13:36:00,
2013-01-16 08:41:00,30.0,21.5,18.26,NW,321,0.0,0.0,70,0.00,,,0.00,WUHU216WMR968SP,2013-01-16 13:41:00,
2013-01-16 08:46:00,30.2,21.7,18.26,NW,321,0.0,0.0,70,0.00,,,0.00,WUHU216WMR968SP,2013-01-16 13:46:00,
2013-01-16 08:51:00,30.2,21.7,18.26,NW,321,0.0,0.0,70,0.00,,,0.00,WUHU216WMR968SP,2013-01-16 13:51:00,
2013-01-16 08:56:00,30.2,21.3,18.26,NW,321,0.0,0.0,69,0.00,,,0.00,WUHU216WMR968SP,2013-01-16 13:56:00,
2013-01-16 09:01:00,30.2,21.3,18.26,NW,321,0.0,0.0,69,0.00,,,0.00,WUHU216WMR968SP,2013-01-16 14:01:00,
2013-01-16 09:06:00,30.4,21.2,18.26,NW,321,0.0,0.0,68,0.00,,,0.00,WUHU216WMR968SP,2013-01-16 14:06:00,
2013-01-16 09:11:00,30.6,21.4,18.26,NW,321,0.0,0.0,68,0.00,,,0.00,WUHU216WMR968SP,2013-01-16 14:11:00,
2013-01-16 09:16:00,30.6,21.0,18.26,NW,321,0.0,0.0,67,0.00,,,0.00,WUHU216WMR968SP,2013-01-16 14:16:00,
2013-01-16 09:21:00,30.6,21.0,18.26,NW,321,0.0,0.0,67,0.00,,,0.00,WUHU216WMR968SP,2013-01-16 14:21:00,
2013-01-16 09:26:00,30.6,21.0,18.26,NW,321,0.0,0.0,67,0.00,,,0.00,WUHU216WMR968SP,2013-01-16 14:26:00,
2013-01-16 09:31:00,30.6,20.7,18.26,NW,321,0.0,0.0,66,0.00,,,0.00,WUHU216WMR968SP,2013-01-16 14:31:00,
2013-01-16 09:36:00,30.7,21.1,18.26,NW,321,0.0,0.0,67,0.00,,,0.00,WUHU216WMR968SP,2013-01-16 14:36:00,
2013-01-16 09:41:00,30.9,21.3,18.26,NW,321,0.0,0.0,67,0.00,,,0.00,WUHU216WMR968SP,2013-01-16 14:41:00,
2013-01-16 09:46:00,31.1,21.5,18.26,NW,321,0.0,0.0,67,0.00,,,0.00,WUHU216WMR968SP,2013-01-16 14:46:00,
2013-01-16 09:51:00,31.1,21.1,18.26,NW,321,0.0,0.0,66,0.00,,,0.00,WUHU216WMR968SP,2013-01-16 14:51:00,
2013-01-16 09:56:00,31.3,21.0,18.26,NW,321,0.0,0.0,65,0.00,,,0.00,WUHU216WMR968SP,2013-01-16 14:56:00,
2013-01-16 10:00:00,31.6,21.2,18.26,NW,321,0.0,0.0,65,0.00,,,0.00,WUHU216WMR968SP,2013-01-16 15:00:00,
2013-01-16 10:05:00,31.8,21.4,18.26,NW,321,0.0,0.0,65,0.00,,,0.00,WUHU216WMR968SP,2013-01-16 15:05:00,
2013-01-16 10:10:00,32.2,21.8,18.26,NW,321,0.0,0.0,65,0.00,,,0.00,WUHU216WMR968SP,2013-01-16 15:10:00,
2013-01-16 10:15:00,32.0,21.3,18.26,NW,321,0.0,0.0,64,0.00,,,0.00,WUHU216WMR968SP,2013-01-16 15:15:00,
2013-01-16 10:20:00,31.8,20.3,18.26,NW,321,0.0,0.0,62,0.00,,,0.00,WUHU216WMR968SP,2013-01-16 15:20:00,
2013-01-16 10:26:00,32.0,20.5,18.26,NW,321,0.0,0.0,62,0.00,,,0.00,WUHU216WMR968SP,2013-01-16 15:26:00,
2013-01-16 10:30:00,32.0,20.5,18.26,NW,321,0.0,0.0,62,0.00,,,0.00,WUHU216WMR968SP,2013-01-16 15:30:00,
2013-01-16 10:35:00,32.0,20.5,18.26,NW,321,0.0,0.0,62,0.00,,,0.00,WUHU216WMR968SP,2013-01-16 15:35:00,
2013-01-16 10:40:00,32.0,20.5,18.26,NW,321,0.0,0.0,62,0.00,,,0.00,WUHU216WMR968SP,2013-01-16 15:40:00,
2013-01-16 10:45:00,31.8,20.3,18.26,NW,321,0.0,0.0,62,0.00,,,0.00,WUHU216WMR968SP,2013-01-16 15:45:00,
2013-01-16 10:50:00,31.6,20.9,18.26,NW,321,0.0,0.0,64,0.00,,,0.00,WUHU216WMR968SP,2013-01-16 15:50:00,
2013-01-16 10:55:00,31.6,21.2,18.26,NW,321,0.0,0.0,65,0.00,,,0.00,WUHU216WMR968SP,2013-01-16 15:55:00,
2013-01-16 11:00:00,31.8,21.8,18.26,NW,321,0.0,0.0,66,0.00,,,0.00,WUHU216WMR968SP,2013-01-16 16:00:00,
2013-01-16 11:06:00,32.2,22.2,18.26,NW,321,0.0,0.0,66,0.00,,,0.00,WUHU216WMR968SP,2013-01-16 16:06:00,
2013-01-16 11:11:00,32.2,21.4,18.26,NW,321,0.0,0.0,64,0.00,,,0.00,WUHU216WMR968SP,2013-01-16 16:11:00,
2013-01-16 11:16:00,32.4,21.6,18.26,NW,321,0.0,0.0,64,0.00,,,0.00,WUHU216WMR968SP,2013-01-16 16:16:00,
2013-01-16 11:21:00,32.5,21.4,18.26,NW,321,0.0,0.0,63,0.00,,,0.00,WUHU216WMR968SP,2013-01-16 16:21:00,
2013-01-16 11:26:00,32.5,21.4,18.26,NW,321,0.0,0.0,63,0.00,,,0.00,WUHU216WMR968SP,2013-01-16 16:26:00,
2013-01-16 11:31:00,32.5,21.0,18.26,NW,321,0.0,0.0,62,0.00,,,0.00,WUHU216WMR968SP,2013-01-16 16:31:00,
2013-01-16 11:36:00,32.5,20.6,18.26,NW,321,0.0,0.0,61,0.00,,,0.00,WUHU216WMR968SP,2013-01-16 16:36:00,
2013-01-16 11:41:00,32.5,21.0,18.26,NW,321,0.0,0.0,62,0.00,,,0.00,WUHU216WMR968SP,2013-01-16 16:41:00,
2013-01-16 11:46:00,32.5,21.0,18.26,NW,321,0.0,0.0,62,0.00,,,0.00,WUHU216WMR968SP,2013-01-16 16:46:00,
2013-01-16 11:51:00,32.4,21.3,18.26,NW,321,0.0,0.0,63,0.00,,,0.00,WUHU216WMR968SP,2013-01-16 16:51:00,
2013-01-16 11:56:00,32.5,21.7,18.26,NW,321,0.0,0.0,64,0.00,,,0.00,WUHU216WMR968SP,2013-01-16 16:56:00,
2013-01-16 12:01:00,32.7,22.3,18.26,NW,321,0.0,0.0,65,0.00,,,0.00,WUHU216WMR968SP,2013-01-16 17:01:00,
2013-01-16 12:05:00,32.7,21.9,18.26,NW,321,0.0,0.0,64,0.00,,,0.00,WUHU216WMR968SP,2013-01-16 17:05:00,
2013-01-16 12:10:00,32.9,22.1,18.26,NW,321,0.0,0.0,64,0.00,,,0.00,WUHU216WMR968SP,2013-01-16 17:10:00,
2013-01-16 12:15:00,33.1,22.3,18.26,NW,321,0.0,0.0,64,0.00,,,0.00,WUHU216WMR968SP,2013-01-16 17:15:00,
2013-01-16 12:20:00,33.3,22.1,18.26,NW,321,0.0,0.0,63,0.00,,,0.00,WUHU216WMR968SP,2013-01-16 17:20:00,
2013-01-16 12:25:00,33.3,22.1,18.26,NW,321,0.0,0.0,63,0.00,,,0.00,WUHU216WMR968SP,2013-01-16 17:25:00,
2013-01-16 12:30:00,33.1,21.5,18.26,NW,321,0.0,0.0,62,0.00,,,0.00,WUHU216WMR968SP,2013-01-16 17:30:00,
2013-01-16 12:35:00,32.9,21.4,18.26,NW,321,0.0,0.0,62,0.00,,,0.00,WUHU216WMR968SP,2013-01-16 17:35:00,
2013-01-16 12:40:00,33.1,21.9,18.26,NW,321,0.0,0.0,63,0.00,,,0.00,WUHU216WMR968SP,2013-01-16 17:40:00,
2013-01-16 12:45:00,32.7,21.6,18.26,NW,321,0.0,0.0,63,0.00,,,0.00,WUHU216WMR968SP,2013-01-16 17:45:00,
2013-01-16 12:50:00,32.7,21.6,18.26,NW,321,0.0,0.0,63,0.00,,,0.00,WUHU216WMR968SP,2013-01-16 17:50:00,
2013-01-16 12:55:00,32.9,22.1,18.26,NW,321,0.0,0.0,64,0.00,,,0.00,WUHU216WMR968SP,2013-01-16 17:55:00,
2013-01-16 13:00:00,32.7,21.6,18.26,NW,321,0.0,0.0,63,0.00,,,0.00,WUHU216WMR968SP,2013-01-16 18:00:00,
2013-01-16 13:05:00,32.9,21.7,18.26,NW,321,0.0,0.0,63,0.00,,,0.00,WUHU216WMR968SP,2013-01-16 18:05:00,
2013-01-16 13:10:00,33.1,22.3,18.26,NW,321,0.0,0.0,64,0.00,,,0.00,WUHU216WMR968SP,2013-01-16 18:10:00,
2013-01-16 13:15:00,33.1,21.9,18.26,NW,321,0.0,0.0,63,0.00,,,0.00,WUHU216WMR968SP,2013-01-16 18:15:00,
2013-01-16 13:20:00,33.3,22.1,18.26,NW,321,0.0,0.0,63,0.00,,,0.00,WUHU216WMR968SP,2013-01-16 18:20:00,
2013-01-16 13:25:00,33.1,21.9,18.26,NW,321,0.0,0.0,63,0.00,,,0.00,WUHU216WMR968SP,2013-01-16 18:25:00,
2013-01-16 13:30:00,32.9,22.1,18.26,NW,321,0.0,0.0,64,0.00,,,0.00,WUHU216WMR968SP,2013-01-16 18:30:00,
2013-01-16 13:35:00,32.7,21.9,18.26,NW,321,0.0,0.0,64,0.00,,,0.00,WUHU216WMR968SP,2013-01-16 18:35:00,
2013-01-16 13:41:00,33.1,22.7,18.26,NW,321,0.0,0.0,65,0.00,,,0.00,WUHU216WMR968SP,2013-01-16 18:41:00,
2013-01-16 13:45:00,33.3,22.5,18.26,NW,321,0.0,0.0,64,0.00,,,0.00,WUHU216WMR968SP,2013-01-16 18:45:00,
2013-01-16 13:51:00,32.9,21.7,18.26,NW,321,0.0,0.0,63,0.00,,,0.00,WUHU216WMR968SP,2013-01-16 18:51:00,
2013-01-16 13:55:00,32.9,21.7,18.26,NW,321,0.0,0.0,63,0.00,,,0.00,WUHU216WMR968SP,2013-01-16 18:55:00,
2013-01-16 14:01:00,32.9,22.1,18.26,NW,321,0.0,0.0,64,0.00,,,0.00,WUHU216WMR968SP,2013-01-16 19:01:00,
2013-01-16 14:06:00,32.7,21.9,18.26,NW,321,0.0,0.0,64,0.00,,,0.00,WUHU216WMR968SP,2013-01-16 19:06:00,
2013-01-16 14:11:00,32.5,22.1,18.26,NW,321,0.0,0.0,65,0.00,,,0.00,WUHU216WMR968SP,2013-01-16 19:11:00,
2013-01-16 14:16:00,32.5,22.1,18.26,NW,321,0.0,0.0,65,0.00,,,0.00,WUHU216WMR968SP,2013-01-16 19:16:00,
2013-01-16 14:21:00,32.5,22.5,18.26,NW,321,0.0,0.0,66,0.00,,,0.00,WUHU216WMR968SP,2013-01-16 19:21:00,
2013-01-16 14:26:00,32.5,22.5,18.26,NW,321,0.0,0.0,66,0.00,,,0.00,WUHU216WMR968SP,2013-01-16 19:26:00,
2013-01-16 14:30:00,32.5,22.8,18.26,NW,321,0.0,0.0,67,0.00,,,0.00,WUHU216WMR968SP,2013-01-16 19:30:00,
2013-01-16 14:36:00,32.5,22.8,18.26,NW,321,0.0,0.0,67,0.00,,,0.00,WUHU216WMR968SP,2013-01-16 19:36:00,
2013-01-16 14:41:00,32.5,22.8,18.26,NW,321,0.0,0.0,67,0.00,,,0.00,WUHU216WMR968SP,2013-01-16 19:41:00,
2013-01-16 14:46:00,32.5,22.8,18.26,NW,321,0.0,0.0,67,0.00,,,0.00,WUHU216WMR968SP,2013-01-16 19:46:00,
2013-01-16 14:51:00,32.5,22.8,18.26,NW,321,0.0,0.0,67,0.00,,,0.00,WUHU216WMR968SP,2013-01-16 19:51:00,
2013-01-16 14:56:00,32.7,23.0,18.26,NW,321,0.0,0.0,67,0.00,,,0.00,WUHU216WMR968SP,2013-01-16 19:56:00,
2013-01-16 15:01:00,32.5,22.8,18.26,NW,321,0.0,0.0,67,0.00,,,0.00,WUHU216WMR968SP,2013-01-16 20:01:00,
2013-01-16 15:06:00,32.7,23.0,18.26,NW,321,0.0,0.0,67,0.00,,,0.00,WUHU216WMR968SP,2013-01-16 20:06:00,
2013-01-16 15:11:00,32.5,22.8,18.26,NW,321,0.0,0.0,67,0.00,,,0.00,WUHU216WMR968SP,2013-01-16 20:11:00,
2013-01-16 15:16:00,32.4,23.1,18.26,NW,321,0.0,0.0,68,0.00,,,0.00,WUHU216WMR968SP,2013-01-16 20:16:00,
2013-01-16 15:21:00,32.2,23.2,18.26,NW,321,0.0,0.0,69,0.00,,,0.00,WUHU216WMR968SP,2013-01-16 20:21:00,
2013-01-16 15:26:00,32.2,23.2,18.26,NW,321,0.0,0.0,69,0.00,,,0.00,WUHU216WMR968SP,2013-01-16 20:26:00,
2013-01-16 15:31:00,32.2,23.6,18.26,NW,321,0.0,0.0,70,0.00,,,0.00,WUHU216WMR968SP,2013-01-16 20:31:00,
2013-01-16 15:36:00,32.2,23.6,18.26,NW,321,0.0,0.0,70,0.00,,,0.00,WUHU216WMR968SP,2013-01-16 20:36:00,
2013-01-16 15:41:00,32.2,23.6,18.26,NW,321,0.0,0.0,70,0.00,,,0.00,WUHU216WMR968SP,2013-01-16 20:41:00,
2013-01-16 15:46:00,32.2,23.9,18.26,NW,321,0.0,0.0,71,0.00,,,0.00,WUHU216WMR968SP,2013-01-16 20:46:00,
2013-01-16 15:51:00,32.2,23.9,18.26,NW,321,0.0,0.0,71,0.00,,,0.00,WUHU216WMR968SP,2013-01-16 20:51:00,
2013-01-16 15:56:00,32.2,23.9,18.26,NW,321,0.0,0.0,71,0.00,,,0.00,WUHU216WMR968SP,2013-01-16 20:56:00,
2013-01-16 16:01:00,32.2,23.6,18.26,NW,321,0.0,0.0,70,0.00,,,0.00,WUHU216WMR968SP,2013-01-16 21:01:00,
2013-01-16 16:06:00,32.0,23.4,18.26,NW,321,0.0,0.0,70,0.00,,,0.00,WUHU216WMR968SP,2013-01-16 21:06:00,
2013-01-16 16:11:00,31.8,23.2,18.26,NW,321,0.0,0.0,70,0.00,,,0.00,WUHU216WMR968SP,2013-01-16 21:11:00,
2013-01-16 16:16:00,31.8,23.2,18.26,NW,321,0.0,0.0,70,0.00,,,0.00,WUHU216WMR968SP,2013-01-16 21:16:00,
2013-01-16 16:21:00,31.8,23.2,18.26,NW,321,0.0,0.0,70,0.00,,,0.00,WUHU216WMR968SP,2013-01-16 21:21:00,
2013-01-16 16:26:00,31.8,23.2,18.26,NW,321,0.0,0.0,70,0.00,,,0.00,WUHU216WMR968SP,2013-01-16 21:26:00,
2013-01-16 16:31:00,31.8,23.2,18.26,NW,321,0.0,0.0,70,0.00,,,0.00,WUHU216WMR968SP,2013-01-16 21:31:00,
2013-01-16 16:36:00,31.8,23.2,18.26,NW,321,0.0,0.0,70,0.00,,,0.00,WUHU216WMR968SP,2013-01-16 21:36:00,
2013-01-16 16:41:00,31.6,23.0,18.26,NW,321,0.0,0.0,70,0.00,,,0.00,WUHU216WMR968SP,2013-01-16 21:41:00,
2013-01-16 16:46:00,31.6,23.0,18.26,NW,321,0.0,0.0,70,0.00,,,0.00,WUHU216WMR968SP,2013-01-16 21:46:00,
2013-01-16 16:51:00,31.5,22.9,18.26,NW,321,0.0,0.0,70,0.00,,,0.00,WUHU216WMR968SP,2013-01-16 21:51:00,
2013-01-16 16:56:00,31.5,22.9,18.26,NW,321,0.0,0.0,70,0.00,,,0.00,WUHU216WMR968SP,2013-01-16 21:56:00,
2013-01-16 17:01:00,31.5,22.9,18.26,NW,321,0.0,0.0,70,0.00,,,0.00,WUHU216WMR968SP,2013-01-16 22:01:00,
2013-01-16 17:06:00,31.5,22.9,18.26,NW,321,0.0,0.0,70,0.00,,,0.00,WUHU216WMR968SP,2013-01-16 22:06:00,
2013-01-16 17:11:00,31.5,22.9,18.26,NW,321,0.0,0.0,70,0.00,,,0.00,WUHU216WMR968SP,2013-01-16 22:11:00,
2013-01-16 17:16:00,31.3,22.7,18.26,NW,321,0.0,0.0,70,0.00,,,0.00,WUHU216WMR968SP,2013-01-16 22:16:00,
2013-01-16 17:21:00,31.3,23.0,18.26,NW,321,0.0,0.0,71,0.00,,,0.00,WUHU216WMR968SP,2013-01-16 22:21:00,
2013-01-16 17:26:00,31.1,22.9,18.26,NW,321,0.0,0.0,71,0.00,,,0.00,WUHU216WMR968SP,2013-01-16 22:26:00,
2013-01-16 17:31:00,31.3,23.0,18.26,NW,321,0.0,0.0,71,0.00,,,0.00,WUHU216WMR968SP,2013-01-16 22:31:00,
2013-01-16 17:36:00,31.1,22.9,18.26,NW,321,0.0,0.0,71,0.00,,,0.00,WUHU216WMR968SP,2013-01-16 22:36:00,
2013-01-16 17:41:00,31.1,22.9,18.26,NW,321,0.0,0.0,71,0.00,,,0.00,WUHU216WMR968SP,2013-01-16 22:41:00,
2013-01-16 17:46:00,30.9,22.7,18.26,NW,321,0.0,0.0,71,0.00,,,0.00,WUHU216WMR968SP,2013-01-16 22:46:00,
2013-01-16 17:51:00,30.7,22.5,18.26,NW,321,0.0,0.0,71,0.00,,,0.00,WUHU216WMR968SP,2013-01-16 22:51:00,
2013-01-16 17:56:00,30.6,22.4,18.26,NW,321,0.0,0.0,71,0.00,,,0.00,WUHU216WMR968SP,2013-01-16 22:56:00,
2013-01-16 18:01:00,30.4,22.2,18.26,NW,321,0.0,0.0,71,0.00,,,0.00,WUHU216WMR968SP,2013-01-16 23:01:00,
2013-01-16 18:06:00,30.4,22.2,18.26,NW,321,0.0,0.0,71,0.00,,,0.00,WUHU216WMR968SP,2013-01-16 23:06:00,
2013-01-16 18:11:00,30.2,22.0,18.26,NW,321,0.0,0.0,71,0.00,,,0.00,WUHU216WMR968SP,2013-01-16 23:11:00,
2013-01-16 18:16:00,30.0,21.8,18.26,NW,321,0.0,0.0,71,0.00,,,0.00,WUHU216WMR968SP,2013-01-16 23:16:00,
2013-01-16 18:21:00,29.7,21.5,18.26,NW,321,0.0,0.0,71,0.00,,,0.00,WUHU216WMR968SP,2013-01-16 23:21:00,
2013-01-16 18:26:00,29.7,21.5,18.26,NW,321,0.0,0.0,71,0.00,,,0.00,WUHU216WMR968SP,2013-01-16 23:26:00,
2013-01-16 18:31:00,29.7,21.5,18.26,NW,321,0.0,0.0,71,0.00,,,0.00,WUHU216WMR968SP,2013-01-16 23:31:00,
2013-01-16 18:36:00,29.7,21.8,18.26,NW,321,0.0,0.0,72,0.00,,,0.00,WUHU216WMR968SP,2013-01-16 23:36:00,
2013-01-16 18:41:00,29.7,21.8,18.26,NW,321,0.0,0.0,72,0.00,,,0.00,WUHU216WMR968SP,2013-01-16 23:41:00,
2013-01-16 18:46:00,30.0,22.1,18.26,NW,321,0.0,0.0,72,0.00,,,0.00,WUHU216WMR968SP,2013-01-16 23:46:00,
2013-01-16 18:51:00,30.0,22.1,18.26,NW,321,0.0,0.0,72,0.00,,,0.00,WUHU216WMR968SP,2013-01-16 23:51:00,
2013-01-16 18:56:00,30.2,22.3,18.26,NW,321,0.0,0.0,72,0.00,,,0.00,WUHU216WMR968SP,2013-01-16 23:56:00,
2013-01-16 19:01:00,30.0,21.8,18.26,NW,321,0.0,0.0,71,0.00,,,0.00,WUHU216WMR968SP,2013-01-17 00:01:00,
2013-01-16 19:06:00,30.2,22.3,18.26,NW,321,0.0,0.0,72,0.00,,,0.00,WUHU216WMR968SP,2013-01-17 00:06:00,
2013-01-16 19:11:00,30.2,22.3,18.26,NW,321,0.0,0.0,72,0.00,,,0.00,WUHU216WMR968SP,2013-01-17 00:11:00,
2013-01-16 19:16:00,30.4,22.2,18.26,NW,321,0.0,0.0,71,0.00,,,0.00,WUHU216WMR968SP,2013-01-17 00:16:00,
2013-01-16 19:21:00,30.4,22.2,18.26,NW,321,0.0,0.0,71,0.00,,,0.00,WUHU216WMR968SP,2013-01-17 00:21:00,
2013-01-16 19:26:00,30.4,22.2,18.26,NW,321,0.0,0.0,71,0.00,,,0.00,WUHU216WMR968SP,2013-01-17 00:26:00,
2013-01-16 19:31:00,30.4,22.2,18.26,NW,321,0.0,0.0,71,0.00,,,0.00,WUHU216WMR968SP,2013-01-17 00:31:00,
2013-01-16 19:36:00,30.4,22.2,18.26,NW,321,0.0,0.0,71,0.00,,,0.00,WUHU216WMR968SP,2013-01-17 00:36:00,
2013-01-16 19:41:00,30.6,22.4,18.26,NW,321,0.0,0.0,71,0.00,,,0.00,WUHU216WMR968SP,2013-01-17 00:41:00,
2013-01-16 19:46:00,30.7,22.5,18.26,NW,321,0.0,0.0,71,0.00,,,0.00,WUHU216WMR968SP,2013-01-17 00:46:00,
2013-01-16 19:51:00,30.6,22.4,18.26,NW,321,0.0,0.0,71,0.00,,,0.00,WUHU216WMR968SP,2013-01-17 00:51:00,
2013-01-16 19:56:00,30.6,22.4,18.26,NW,321,0.0,0.0,71,0.00,,,0.00,WUHU216WMR968SP,2013-01-17 00:56:00,
2013-01-16 20:01:00,30.6,22.7,18.26,NW,321,0.0,0.0,72,0.00,,,0.00,WUHU216WMR968SP,2013-01-17 01:01:00,
2013-01-16 20:06:00,30.7,22.8,18.26,NW,321,0.0,0.0,72,0.00,,,0.00,WUHU216WMR968SP,2013-01-17 01:06:00,
2013-01-16 20:11:00,30.7,22.8,18.26,NW,321,0.0,0.0,72,0.00,,,0.00,WUHU216WMR968SP,2013-01-17 01:11:00,
2013-01-16 20:16:00,30.7,22.8,18.26,NW,321,0.0,0.0,72,0.00,,,0.00,WUHU216WMR968SP,2013-01-17 01:16:00,
2013-01-16 20:21:00,30.7,22.8,18.26,NW,321,0.0,0.0,72,0.00,,,0.00,WUHU216WMR968SP,2013-01-17 01:21:00,
2013-01-16 20:26:00,30.7,22.8,18.26,NW,321,0.0,0.0,72,0.00,,,0.00,WUHU216WMR968SP,2013-01-17 01:26:00,
2013-01-16 20:31:00,30.7,22.8,18.26,NW,321,0.0,0.0,72,0.00,,,0.00,WUHU216WMR968SP,2013-01-17 01:31:00,
2013-01-16 20:36:00,30.7,22.8,18.26,NW,321,0.0,0.0,72,0.00,,,0.00,WUHU216WMR968SP,2013-01-17 01:36:00,
2013-01-16 20:41:00,30.7,22.8,18.26,NW,321,0.0,0.0,72,0.00,,,0.00,WUHU216WMR968SP,2013-01-17 01:41:00,
2013-01-16 20:46:00,30.7,22.8,18.26,NW,321,0.0,0.0,72,0.00,,,0.00,WUHU216WMR968SP,2013-01-17 01:46:00,
2013-01-16 20:51:00,30.7,22.8,18.26,NW,321,0.0,0.0,72,0.00,,,0.00,WUHU216WMR968SP,2013-01-17 01:51:00,
2013-01-16 20:56:00,30.7,22.8,18.26,NW,321,0.0,0.0,72,0.00,,,0.00,WUHU216WMR968SP,2013-01-17 01:56:00,
2013-01-16 21:01:00,30.7,22.8,18.26,NW,321,0.0,0.0,72,0.00,,,0.00,WUHU216WMR968SP,2013-01-17 02:01:00,
2013-01-16 21:06:00,30.7,22.8,18.26,NW,321,0.0,0.0,72,0.00,,,0.00,WUHU216WMR968SP,2013-01-17 02:06:00,
2013-01-16 21:11:00,30.7,22.8,18.26,NW,321,0.0,0.0,72,0.00,,,0.00,WUHU216WMR968SP,2013-01-17 02:11:00,
2013-01-16 21:16:00,30.7,22.8,18.26,NW,321,0.0,0.0,72,0.00,,,0.00,WUHU216WMR968SP,2013-01-17 02:16:00,
2013-01-16 21:21:00,30.7,22.8,18.26,NW,321,0.0,0.0,72,0.00,,,0.00,WUHU216WMR968SP,2013-01-17 02:21:00,
2013-01-16 21:26:00,30.7,22.8,18.26,NW,321,0.0,0.0,72,0.00,,,0.00,WUHU216WMR968SP,2013-01-17 02:26:00,
2013-01-16 21:31:00,30.7,22.8,18.26,NW,321,0.0,0.0,72,0.00,,,0.00,WUHU216WMR968SP,2013-01-17 02:31:00,
2013-01-16 21:36:00,30.6,22.7,18.26,NW,321,0.0,0.0,72,0.00,,,0.00,WUHU216WMR968SP,2013-01-17 02:36:00,
2013-01-16 21:41:00,30.6,22.7,18.26,NW,321,0.0,0.0,72,0.00,,,0.00,WUHU216WMR968SP,2013-01-17 02:41:00,
2013-01-16 21:46:00,30.6,22.7,18.26,NW,321,0.0,0.0,72,0.00,,,0.00,WUHU216WMR968SP,2013-01-17 02:46:00,
2013-01-16 21:51:00,30.6,22.7,18.26,NW,321,0.0,0.0,72,0.00,,,0.00,WUHU216WMR968SP,2013-01-17 02:51:00,
2013-01-16 21:56:00,30.6,22.7,18.26,NW,321,0.0,0.0,72,0.00,,,0.00,WUHU216WMR968SP,2013-01-17 02:56:00,
2013-01-16 22:01:00,30.7,22.8,18.26,NW,321,0.0,0.0,72,0.00,,,0.00,WUHU216WMR968SP,2013-01-17 03:01:00,
2013-01-16 22:06:00,30.6,22.7,18.26,NW,321,0.0,0.0,72,0.00,,,0.00,WUHU216WMR968SP,2013-01-17 03:06:00,
2013-01-16 22:11:00,30.6,22.7,18.26,NW,321,0.0,0.0,72,0.00,,,0.00,WUHU216WMR968SP,2013-01-17 03:11:00,
2013-01-16 22:16:00,30.6,22.7,18.26,NW,321,0.0,0.0,72,0.00,,,0.00,WUHU216WMR968SP,2013-01-17 03:16:00,
2013-01-16 22:21:00,30.6,22.7,18.26,NW,321,0.0,0.0,72,0.00,,,0.00,WUHU216WMR968SP,2013-01-17 03:21:00,
2013-01-16 22:26:00,30.7,22.8,18.26,NW,321,0.0,0.0,72,0.00,,,0.00,WUHU216WMR968SP,2013-01-17 03:26:00,
2013-01-16 22:31:00,30.6,22.7,18.26,NW,321,0.0,0.0,72,0.00,,,0.00,WUHU216WMR968SP,2013-01-17 03:31:00,
2013-01-16 22:36:00,30.7,22.8,18.26,NW,321,0.0,0.0,72,0.00,,,0.00,WUHU216WMR968SP,2013-01-17 03:36:00,
2013-01-16 22:41:00,30.9,23.0,18.26,NW,321,0.0,0.0,72,0.00,,,0.00,WUHU216WMR968SP,2013-01-17 03:41:00,
2013-01-16 22:46:00,30.9,23.0,18.26,NW,321,0.0,0.0,72,0.00,,,0.00,WUHU216WMR968SP,2013-01-17 03:46:00,
2013-01-16 22:51:00,30.9,23.0,18.26,NW,321,0.0,0.0,72,0.00,,,0.00,WUHU216WMR968SP,2013-01-17 03:51:00,
2013-01-16 22:56:00,30.9,23.0,18.26,NW,321,0.0,0.0,72,0.00,,,0.00,WUHU216WMR968SP,2013-01-17 03:56:00,
2013-01-16 23:01:00,30.7,22.8,18.26,NW,321,0.0,0.0,72,0.00,,,0.00,WUHU216WMR968SP,2013-01-17 04:01:00,
2013-01-16 23:06:00,30.7,22.8,18.26,NW,321,0.0,0.0,72,0.00,,,0.00,WUHU216WMR968SP,2013-01-17 04:06:00,
2013-01-16 23:11:00,30.7,22.8,18.26,NW,321,0.0,0.0,72,0.00,,,0.00,WUHU216WMR968SP,2013-01-17 04:11:00,
2013-01-16 23:16:00,30.6,22.7,18.26,NW,321,0.0,0.0,72,0.00,,,0.00,WUHU216WMR968SP,2013-01-17 04:16:00,
2013-01-16 23:21:00,30.2,22.3,18.26,NW,321,0.0,0.0,72,0.00,,,0.00,WUHU216WMR968SP,2013-01-17 04:21:00,
2013-01-16 23:26:00,29.5,21.6,18.26,NW,321,0.0,0.0,72,0.00,,,0.00,WUHU216WMR968SP,2013-01-17 04:26:00,
2013-01-16 23:31:00,29.1,21.3,18.26,NW,321,0.0,0.0,72,0.00,,,0.00,WUHU216WMR968SP,2013-01-17 04:31:00,
2013-01-16 23:36:00,28.6,20.8,18.26,NW,321,0.0,0.0,72,0.00,,,0.00,WUHU216WMR968SP,2013-01-17 04:36:00,
2013-01-16 23:41:00,28.0,20.2,18.26,NW,321,0.0,0.0,72,0.00,,,0.00,WUHU216WMR968SP,2013-01-17 04:41:00,
2013-01-16 23:46:00,27.9,20.1,18.26,NW,321,0.0,0.0,72,0.00,,,0.00,WUHU216WMR968SP,2013-01-17 04:46:00,
2013-01-16 23:51:00,27.7,19.9,18.26,NW,321,0.0,0.0,72,0.00,,,0.00,WUHU216WMR968SP,2013-01-17 04:51:00,
2013-01-16 23:56:00,27.3,19.8,18.26,NW,321,0.0,0.0,73,0.00,,,0.00,WUHU216WMR968SP,2013-01-17 04:56:00,